Arctic Village, AK

6:37 PM AKST on January 23, 2017 (GMT -0900)
Arctic Village

Weather History for PARC - December, 2012

Change the Weather History Date:

Thursday, December 20, 2012

  Actual Average Record
Temperature  
Mean Temperature -38 °F -  
Max Temperature -29 °F -2 °F 21 °F (2006)
Min Temperature -47 °F -24 °F -47 °F (2001)
Degree Days  
Heating Degree Days 103    
Moisture  
Dew Point -    
Average Humidity    
Maximum Humidity    
Minimum Humidity    
Precipitation  
Precipitation 0.00 in - - ()
Sea Level Pressure  
Sea Level Pressure 30.39 in    
Wind  
Wind Speed 0 mph (North)    
Max Wind Speed 0 mph    
Max Gust Speed -    
Visibility 6 miles    
Events      
Averages and records for this station are not official NWS values.
T = Trace of Precipitation, MM = Missing Value Source: NWS Daily Summary

Daily Weather History Graph

Daily Weather History Graph

Search for Another Location

Airport or City:

Trip Planner

Search our weather history database for the weather conditions in past years. The results will help you decide how hot, cold, wet, or windy it might be!

Date:

Astronomy

Dec. 20, 2012 Rise Set
Actual Time 12:07 PM AKST 1:12 PM AKST
Civil Twilight 10:02 AM AKST 3:17 PM AKST
Nautical Twilight 8:32 AM AKST 4:47 PM AKST
Astronomical Twilight 7:20 AM AKST 5:59 PM AKST
Moon 11:59 AM AKST (12/20) 1:27 AM AKST (12/20)
Length of Visible Light 5h 14m
Length of Day
1h 04m
First Quarter, 56% of the Moon is Illuminated
Dec 20
First Quarter
Dec 28
Full
Jan 4
Last Quarter
Jan 11
New
Jan 18
First Quarter

Hourly Weather History & Observations

Time (AKST) Temp. Dew Point Humidity Pressure Visibility Wind Dir Wind Speed Gust Speed Precip Events Conditions
12:16 AM -29.2 °F - N/A% 30.23 in 9.0 mi Calm Calm - N/A   Clear
12:36 AM -32.8 °F - N/A% 30.23 in 10.0 mi Calm Calm - N/A   Clear
12:56 AM -32.8 °F - N/A% 30.24 in 10.0 mi Calm Calm - N/A   Clear
1:16 AM -32.8 °F - N/A% 30.25 in 10.0 mi Calm Calm - N/A   Clear
1:36 AM -32.8 °F - N/A% 30.26 in 10.0 mi Calm Calm - N/A   Clear
1:56 AM -34.6 °F - N/A% 30.27 in 10.0 mi Calm Calm - N/A   Clear
2:16 AM -32.8 °F - N/A% 30.27 in 10.0 mi Calm Calm - N/A   Clear
2:36 AM -34.6 °F - N/A% 30.28 in 10.0 mi Calm Calm - N/A   Clear
2:56 AM -29.2 °F - N/A% 30.28 in 5.0 mi Calm Calm - N/A   Clear
3:16 AM -29.2 °F - N/A% 30.29 in 7.0 mi Calm Calm - N/A   Clear
3:36 AM -32.8 °F - N/A% 30.30 in 8.0 mi Calm Calm - N/A   Clear
3:56 AM -34.6 °F - N/A% 30.30 in 10.0 mi Calm Calm - N/A   Clear
4:16 AM -32.8 °F - N/A% 30.30 in 9.0 mi Calm Calm - N/A   Clear
4:36 AM -32.8 °F - N/A% 30.31 in 10.0 mi Calm Calm - N/A   Clear
4:56 AM -38.2 °F - N/A% 30.31 in 10.0 mi Calm Calm - N/A   Clear
5:16 AM -36.4 °F - N/A% 30.32 in 10.0 mi Calm Calm - N/A   Clear
5:36 AM -36.4 °F - N/A% 30.33 in 10.0 mi Calm Calm - N/A   Clear
5:56 AM -32.8 °F - N/A% 30.33 in 10.0 mi Calm Calm - N/A   Clear
6:16 AM -36.4 °F - N/A% 30.34 in 10.0 mi Calm Calm - N/A   Clear
6:36 AM -36.4 °F - N/A% 30.34 in 10.0 mi Calm Calm - N/A   Clear
6:56 AM -34.6 °F - N/A% 30.35 in 8.0 mi Calm Calm - N/A   Clear
7:16 AM -34.6 °F - N/A% 30.35 in 10.0 mi Calm Calm - N/A   Clear
7:36 AM -40.0 °F - N/A% 30.36 in 10.0 mi Calm Calm - N/A   Clear
7:56 AM -40.0 °F - N/A% 30.36 in 7.0 mi Calm Calm - N/A   Clear
8:16 AM -38.2 °F - N/A% 30.37 in 4.0 mi Calm Calm - N/A   Clear
8:36 AM -41.8 °F - N/A% 30.37 in 9.0 mi Calm Calm - N/A   Clear
8:56 AM -43.6 °F - N/A% 30.37 in 9.0 mi Calm Calm - N/A   Clear
9:16 AM -41.8 °F - N/A% 30.37 in 3.0 mi Calm Calm - N/A   Clear
9:36 AM -38.2 °F - N/A% 30.39 in 10.0 mi Calm Calm - N/A   Clear
9:56 AM -40.0 °F - N/A% 30.40 in 3.0 mi Calm Calm - N/A   Clear
10:16 AM -34.6 °F - N/A% 30.40 in 10.0 mi Calm Calm - N/A   Clear
10:36 AM -36.4 °F - N/A% 30.40 in 8.0 mi Calm Calm - N/A   Clear
10:56 AM -40.0 °F - N/A% 30.40 in 6.0 mi Calm Calm - N/A   Clear
11:16 AM -43.6 °F - N/A% 30.40 in 1.8 mi Calm Calm - N/A   Clear
11:36 AM -41.8 °F - N/A% 30.41 in 2.5 mi Calm Calm - N/A   Clear
11:56 AM -36.4 °F - N/A% 30.41 in 8.0 mi Calm Calm - N/A   Clear
12:16 PM -38.2 °F - N/A% 30.41 in 4.0 mi Calm Calm - N/A   Clear
12:36 PM -41.8 °F - N/A% 30.42 in 3.0 mi Calm Calm - N/A   Clear
12:56 PM - - N/A% 30.41 in 1.8 mi Calm Calm - N/A   Clear
1:16 PM -36.4 °F - N/A% 30.42 in 5.0 mi Calm Calm - N/A   Clear
1:36 PM -43.6 °F - N/A% 30.43 in 3.0 mi Calm Calm - N/A   Clear
1:56 PM -45.4 °F - N/A% 30.43 in 5.0 mi Calm Calm - N/A   Clear
2:16 PM -41.8 °F - N/A% 30.43 in 1.0 mi Calm Calm - N/A   Clear
2:36 PM -36.4 °F - N/A% 30.43 in 10.0 mi Calm Calm - N/A   Clear
2:56 PM -45.4 °F - N/A% 30.43 in 2.5 mi Calm Calm - N/A   Clear
3:16 PM -43.6 °F - N/A% 30.44 in 2.0 mi Calm Calm - N/A   Clear
3:36 PM -45.4 °F - N/A% 30.44 in 2.0 mi Calm Calm - N/A   Clear
3:56 PM -41.8 °F - N/A% 30.43 in 2.0 mi Calm Calm - N/A   Clear
4:16 PM -41.8 °F - N/A% 30.43 in 4.0 mi Calm Calm - N/A   Clear
4:36 PM -43.6 °F - N/A% 30.44 in 6.0 mi Calm Calm - N/A   Clear
4:56 PM -45.4 °F - N/A% 30.44 in 2.5 mi Calm Calm - N/A   Clear
5:16 PM -45.4 °F - N/A% 30.44 in 1.8 mi Calm Calm - N/A   Clear
5:36 PM -43.6 °F - N/A% 30.44 in 3.0 mi Calm Calm - N/A   Clear
5:56 PM -43.6 °F - N/A% 30.44 in 2.5 mi Calm Calm - N/A   Clear
6:16 PM -43.6 °F - N/A% 30.44 in 3.0 mi Calm Calm - N/A   Clear
6:36 PM -41.8 °F - N/A% 30.45 in 9.0 mi Calm Calm - N/A   Clear
6:56 PM -45.4 °F - N/A% 30.45 in 2.5 mi Calm Calm - N/A   Clear
7:16 PM -45.4 °F - N/A% 30.45 in 5.0 mi Calm Calm - N/A   Clear
7:36 PM -43.6 °F - N/A% 30.45 in 2.0 mi Calm Calm - N/A   Clear
7:56 PM -45.4 °F - N/A% 30.46 in 3.0 mi Calm Calm - N/A   Clear
8:16 PM -45.4 °F - N/A% 30.46 in 3.0 mi Calm Calm - N/A   Clear
8:36 PM - - N/A% 30.45 in 3.0 mi Calm Calm - N/A   Clear
8:56 PM -47.2 °F - N/A% 30.46 in 4.0 mi Calm Calm - N/A   Clear
9:16 PM - - N/A% 30.44 in 2.0 mi Calm Calm - N/A   Clear
9:36 PM -43.6 °F - N/A% 30.45 in 2.5 mi Calm Calm - N/A   Clear
9:56 PM -43.6 °F - N/A% 30.45 in 1.8 mi Calm Calm - N/A   Clear
10:16 PM -45.4 °F - N/A% 30.45 in 1.2 mi Calm Calm - N/A   Clear
10:36 PM - - N/A% 30.45 in 3.0 mi Calm Calm - N/A   Clear
10:56 PM -43.6 °F - N/A% 30.45 in 10.0 mi Calm Calm - N/A   Clear
11:16 PM -43.6 °F - N/A% 30.46 in 1.8 mi Calm Calm - N/A   Clear
11:36 PM -45.4 °F - N/A% 30.46 in 2.5 mi Calm Calm - N/A   Clear
11:56 PM -43.6 °F - N/A% 30.46 in 1.8 mi Calm Calm - N/A   Clear